Regional Weather Roundup
Issued by NWS

Home | Current Version | Previous Version | Graphics & Text | Print | Product List | Glossary On
Versions: 1 2 3 4 5 6 7 8 9 10 11 12 13 14 15 16 17 18 19 20 21 22 23 24 25 26 27 28 29 30 31 32 33 34 35 36 37 38 39 40 41 42 43 44 45 46 47 48 49 50
587
ASUS45 KTFX 200010
RWRMT
MONTANA REGIONAL WEATHER ROUNDUP
NATIONAL WEATHER SERVICE GREAT FALLS MT
600 PM MDT THU OCT 19 2017

NOTE: "FAIR" INDICATES FEW OR NO CLOUDS BELOW 12000 FEET WITH NO
SIGNIFICANT WEATHER AND/OR OBSTRUCTIONS TO VISIBILITY.

MTZ001>007-043-200100-
WEST OF THE DIVIDE

CITY           SKY/WX    TMP DP  RH WIND       PRES   REMARKS
KALISPELL      CLOUDY    60  33  36 NE5       29.51F
MISSOULA       MOCLDY    68  25  19 W7        29.54F
BUTTE          CLOUDY    65  13  13 S15G26    29.68F
MULLAN PASS    CLOUDY    47  26  44 SW6       29.61F
ANACONDA         N/A     64  16  15 S6        29.63F
DEER LODGE       N/A     66  18  15 SW5       29.61F
EUREKA           N/A     63  28  27 MISG      29.50
HAMILTON         N/A     72  19  14 CALM      29.56F
LIBBY            N/A     63  30  29 S10G26    29.50F
PLAINS           N/A     64  29  27 CALM      29.55
$$

MTZ008-052>055-200100-
SOUTHWEST MONTANA

CITY           SKY/WX    TMP DP  RH WIND       PRES   REMARKS
BOZEMAN        CLOUDY    69  19  15 S7        29.66S
DILLON         CLEAR     63  13  14 SE25G41   29.68F
W YELLOWSTONE  CLEAR     59   9  13 SW9G17    29.89F
ENNIS          CLOUDY    64  10  12 S20G26    29.80F
THREE FORKS      N/A     70  12  10 S14       29.68F
TWIN BRIDGES     N/A     67  14  13 SE7       29.71
$$

MTZ009-010-012-014-046-048-049-054-200100-
EAST SLOPES AND CENTRAL MONTANA

CITY           SKY/WX    TMP DP  RH WIND       PRES   REMARKS
CUT BANK       PTCLDY    62  19  19 W13       29.50F
GREAT FALLS    CLOUDY    67  23  19 S5        29.53F
MALMSTROM AFB  PTCLDY    67  21  17 S12       29.52F
HELENA         CLOUDY    73  17  12 S8        29.57F
BOWMANS CRNR     N/A     64  18  16 SW14      29.54F
CHOTEAU          N/A     68  18  14 S9        29.55F
FAIRFIELD        N/A     67  20  16 SW12      29.53F
POWER            N/A     64  20  19 S3        29.52F
RAYNESFORD       N/A     69  17  13 SW6       29.57F
ULM              N/A     69  24  18 S8        29.52F
$$

MTZ011-013-016-021-045-047-050-051-200100-
NORTH CENTRAL MONTANA

CITY           SKY/WX    TMP DP  RH WIND       PRES   REMARKS
HAVRE          CLOUDY    66  26  22 S12       29.50F
LEWISTOWN      CLOUDY    66  20  17 S12       29.61F
N BAR RANCH      N/A     64  18  16 SW9       29.68F
CHINOOK          N/A     72  21  15 S5        29.50F
DENTON           N/A     65  24  21 CALM      29.53F
GEYSER           N/A     65  17  15 MISG      29.58F
GRASS RANGE      N/A     66  23  19 S13       29.58F
JUDITH GAP       N/A     61  20  21 SE14      29.64F
WINIFRED         N/A     64  22  20 SE8       29.57F
$$

MTZ017>020-022>027-061-062-200100-
NORTHEAST MONTANA

CITY           SKY/WX    TMP DP  RH WIND       PRES   REMARKS
GLASGOW        CLOUDY    72  22  15 CALM      29.55F
JORDAN           N/A     69  29  22 S7        29.59F
SIDNEY         CLEAR     65  34  31 SW8       29.62F
WOLF POINT     CLEAR     75  23  14 CALM      29.58S
MALTA          CLEAR     64  30  27 CALM      29.53F
PLENTYWOOD       N/A     73  27  17 CALM      29.60S
POPLAR           N/A     79  25  13 SW5       29.59S
SCOBEY           N/A     70  26  19 SW2       29.61
$$

MTZ028>42-056>058-200100-
SOUTHCENTRAL AND SOUTHEAST MONTANA

CITY           SKY/WX    TMP DP  RH WIND       PRES   REMARKS
BAKER          CLEAR     62  38  40 S10       29.69F
BILLINGS       PTCLDY    75  22  13 SW8       29.63F
LIVINGSTON     CLEAR     70  10  10 SW28G37   29.65F
MILES CITY     CLEAR     73  30  20 SE7       29.62F
BIG TIMBER     CLEAR     63  12  14 SW12      29.69S
EKALAKA          N/A     69  25  19 SE6       29.72
FORSYTH          N/A     70  28  21 SE5       29.61F
HARLOWTON        N/A     69  14  12 MISG      29.63F
LAUREL           N/A     70  21  16 SW9       29.64F
$$

REGIONAL REPORTS...DAKOTAS

CITY           SKY/WX    TMP DP  RH WIND       PRES   REMARKS
WILLISTON      CLEAR     69  34  27 S3        29.62F
MINOT          CLEAR     69  34  27 S6        29.64F
DICKINSON      CLEAR     66  31  27 SE6       29.67F
BEACH            N/A     61  30  31 S8        29.70F
CROSBY           N/A     63  32  31 S10       29.61S
TIOGA            N/A     63  30  29 S10       29.66S
WATFORD CITY     N/A     66  30  26 S7        29.63F
BISMARCK       CLEAR     62  39  42 S10       29.70F
GRAND FORKS    PTCLDY    62  41  46 S12       29.71S
FARGO          CLEAR     63  42  46 S7        29.76S
BUFFALO SD       N/A     69  31  24 SE9       29.66F
RAPID CITY     CLEAR     69  20  15 S9        29.75F
$$

REGIONAL REPORTS...WYOMING/IDAHO/WASHINGTON

CITY           SKY/WX    TMP DP  RH WIND       PRES   REMARKS
GILLETTE         N/A     71  13  10 MISG      29.74F
SHERIDAN       CLOUDY    70  37  29 CALM      29.68F
BUFFALO WY     CLOUDY    70  23  17 N5        29.75F
CODY           CLEAR     69  17  13 W6        29.78F
YELLOWSTONE LA   N/A     52  15  23 CALM      29.97F
IDAHO FALLS    CLEAR     68  23  18 S13       29.80F
SALMON         CLOUDY    71  11  10 S10G20    29.60F
BOISE          PTCLDY    75   9   8 S10       29.62F
SPOKANE        CLOUDY    55  43  63 SE3       29.53F
$$

REGIONAL REPORTS...ALBERTA

CITY           SKY/WX    TMP DP  RH WIND       PRES   REMARKS
EDMONTON       CLEAR     50  37  62 E3        29.35S
CALGARY        MOCLDY    55  34  44 S17G23    29.38F
LETHBRIDGE     MOCLDY    61  30  31 SW13      29.44F
MEDICINE HAT   CLOUDY    64  30  27 S7        29.43F
$$

REGIONAL REPORTS...SASKATCHEWAN

CITY           SKY/WX    TMP DP  RH WIND       PRES   REMARKS
SWIFT CURRENT  CLEAR     59  27  29 S8        29.50F
REGINA         MOCLDY    63  28  27 SE5       29.53R
SASKATOON      MOCLDY    57  39  51 S3        29.47S
$$




USA.gov is the U.S. government's official web portal to all federal, state and local government web resources and services.